Regional Weather Roundup
Issued by NWS

Home | Current Version | Previous Version | Text Only | Print | Product List | Glossary On
Versions: 1 2 3 4 5 6 7 8 9 10 11 12 13 14 15 16 17 18 19 20 21 22 23 24 25 26 27 28 29 30 31 32 33 34 35 36 37 38 39 40 41 42 43 44 45 46 47 48 49 50
000
ASUS46 KPQR 211910
RWROR

OREGON REGIONAL WEATHER ROUNDUP
NATIONAL WEATHER SERVICE PORTLAND OR
1100 AM PST FRI NOV 21 2014

NOTE: "FAIR" INDICATES FEW OR NO CLOUDS BELOW 12,000 FEET WITH
NO SIGNIFICANT WEATHER AND/OR OBSTRUCTIONS TO VISIBILITY.

ORZ001>013-212000-
NORTHWEST OREGON


CITY           SKY/WX    TMP DP  RH WIND       PRES   REMARKS
ASTORIA        LGT RAIN  52  49  89 E5        29.61F
NEWPORT        LGT RAIN  52  50  93 S28G38    29.73F
PORTLAND       LGT RAIN  43  40  89 SE15      29.76F FOG
VANCOUVER WA   LGT RAIN  43  39  86 SE10      29.75F FOG
SCAPPOOSE      LGT RAIN  44  41  89 CALM      29.74F FOG
HILLSBORO      LGT RAIN  50  47  89 S9        29.73F FOG
AURORA         LGT RAIN  49  46  90 CALM      29.75F
MCMINNVILLE    LGT RAIN  51  46  83 S23G29    29.74F
SALEM          LGT RAIN  51  47  86 SW8       29.74F
CORVALLIS      CLOUDY    52  46  82 S7        29.78F
EUGENE         LGT RAIN  50  47  89 S7        29.79F
$$

ORZ021-028-212000-
SOUTHWEST OREGON


CITY           SKY/WX    TMP DP  RH WIND       PRES   REMARKS
NORTH BEND     CLOUDY    54  54 100 SE7       29.79F
BROOKINGS      HVY RAIN  52  52 100 SE12      29.96S VSB 1
ROSEBURG       LGT RAIN  54  46  74 S5        29.83F
SEXTON SUMMIT  CLOUDY    39  39 100 S15G22    29.88F FOG     WCI  31
MEDFORD        CLOUDY    47  44  90 NE5       29.94F
$$

ORZ009-041-212000-
COLUMBIA GORGE


CITY           SKY/WX    TMP DP  RH WIND       PRES   REMARKS
TROUTDALE      LGT RAIN  41  36  82 E25G32    29.76F
THE DALLES     LGT RAIN  34  30  85 CALM      29.90F FOG
$$

ORZ029>031-042>050-061>064-212000-
EASTERN OREGON


CITY           SKY/WX    TMP DP  RH WIND       PRES   REMARKS
REDMOND        LGT RAIN  40  34  79 S9        29.84F WCI  34
BEND           CLOUDY    41  32  70 S8        29.86F
PRINEVILLE     CLOUDY    43  34  70 SE5       29.86F
KLAMATH FALLS  LGT RAIN  37  33  85 S8        30.00S WCI  31
LAKEVIEW       CLOUDY    37  32  81 S13       30.02S WCI  29
HERMISTON      CLOUDY    33  30  88 W3        29.88F FOG
PENDLETON      PTSUNNY   36  32  85 CALM      29.83F
JOHN DAY       PTSUNNY   45  34  65 S18G26    29.91F
MEACHAM        PTSUNNY   40  31  70 CALM      29.85F
LA GRANDE      CLOUDY    39  27  60 S18G28    29.91F WCI  30
BAKER CITY     PTSUNNY   35  30  82 S3        29.95F
BURNS          CLOUDY    38  31  76 CALM      29.98S
ROME           NOT AVBL
ONTARIO        CLOUDY    31  23  72 N3        30.11S HAZE
$$


USA.gov is the U.S. government's official web portal to all federal, state and local government web resources and services.